Location: Dayton
(39.7590°N, 84.1920°W)
Time: 07:38:38
(UTC-04:00)

ATLAS CENTAUR R/B - Visible Passes

Search period start: 21 April 2015 00:00
Search period end: 01 May 2015 00:00
Orbit: 242 x 9062 km, 57.3° (Epoch: 17 February)

Date Brightness Start Highest point End Pass type
(mag) Time Alt. Az. Time Alt. Az. Time Alt. Az.
23 Apr 6.0 22:26:16 10° S 22:26:47 11° S 22:26:47 11° S visible
25 Apr 5.4 21:58:44 10° S 22:02:11 15° SSE 22:02:11 15° SSE visible
26 Apr 5.3 23:21:53 10° SSW 23:24:44 17° SSW 23:24:44 17° SSW visible
27 Apr 4.4 06:05:13 10° N 06:07:19 17° NE 06:10:56 10° E visible
27 Apr 4.9 21:30:30 10° SSE 21:36:12 15° SE 21:36:46 15° SE visible
28 Apr 4.1 22:52:18 10° SSW 22:58:52 32° S 22:58:52 32° S visible
29 Apr 4.7 05:36:43 10° NNE 05:38:14 13° NE 05:40:30 10° ENE visible
29 Apr 4.8 21:01:39 10° SSE 21:06:23 14° SE 21:09:59 10° ESE visible
30 Apr 5.1 00:19:09 10° WSW 00:20:41 14° WSW 00:20:41 14° WSW visible
30 Apr 3.1 22:21:51 10° SSW 22:31:32 42° SE 22:32:03 41° ESE visible
